TimeCST,TemperatureF,Dew PointF,Humidity,Sea Level PressureIn,VisibilityMPH,Wind Direction,Wind SpeedMPH,Gust SpeedMPH,PrecipitationIn,Events,Conditions,WindDirDegrees,DateUTC
12:54 AM,1.9,-5.1,72,30.25,10.0,North,-9999.0,-,N/A,,Overcast,0,2013-12-13 06:54:00
1:54 AM,-0.0,-7.1,72,30.25,10.0,North,-9999.0,-,N/A,,Overcast,0,2013-12-13 07:54:00
2:54 AM,-0.9,-7.1,75,30.26,10.0,North,-9999.0,-,N/A,,Overcast,0,2013-12-13 08:54:00
3:54 AM,-2.0,-8.0,76,30.27,10.0,North,-9999.0,-,N/A,,Overcast,0,2013-12-13 09:54:00
4:54 AM,-4.0,-9.9,76,30.29,10.0,North,-9999.0,-,N/A,,Overcast,0,2013-12-13 10:54:00
5:26 AM,-4.0,-11.0,72,30.15,10.0,North,-9999.0,-,N/A,,Overcast,0,2013-12-13 11:26:00
5:54 AM,-5.1,-11.0,76,30.30,9.0,North,-9999.0,-,N/A,,Overcast,0,2013-12-13 11:54:00
6:54 AM,-5.1,-11.9,72,30.31,10.0,North,-9999.0,-,N/A,,Overcast,0,2013-12-13 12:54:00
7:35 AM,-6.0,-11.9,75,30.19,10.0,East,13.8,-,N/A,,Overcast,80,2013-12-13 13:35:00
7:54 AM,-6.0,-11.9,75,30.33,9.0,East,13.8,-,N/A,,Overcast,80,2013-12-13 13:54:00
8:54 AM,-6.0,-11.9,75,30.36,8.0,East,17.3,-,0.00,Snow,Light Snow,80,2013-12-13 14:54:00
9:38 AM,-6.0,-11.9,75,30.23,2.5,ENE,13.8,-,0.00,Snow,Light Snow,70,2013-12-13 15:38:00
9:54 AM,-6.0,-11.9,75,30.38,2.5,ENE,13.8,-,0.00,Snow,Light Snow,70,2013-12-13 15:54:00
10:17 AM,-6.0,-11.9,75,30.23,2.0,North,-9999.0,-,0.00,Snow,Light Snow,0,2013-12-13 16:17:00
10:29 AM,-5.1,-11.9,72,30.24,1.8,ENE,17.3,-,0.00,Snow,Light Snow,70,2013-12-13 16:29:00
10:54 AM,-5.1,-11.9,72,30.39,1.8,ENE,17.3,-,0.00,Snow,Light Snow,70,2013-12-13 16:54:00
11:03 AM,-6.0,-11.9,75,30.25,2.0,ENE,13.8,-,0.00,Snow,Light Snow,70,2013-12-13 17:03:00
11:38 AM,-6.0,-11.9,75,30.25,1.8,ENE,13.8,-,0.00,Snow,Light Snow,70,2013-12-13 17:38:00
11:47 AM,-6.0,-11.9,75,30.25,1.5,ENE,13.8,-,0.00,Snow,Light Snow,70,2013-12-13 17:47:00
11:54 AM,-6.0,-11.9,75,30.40,1.2,ENE,13.8,-,0.00,Snow,Light Snow,70,2013-12-13 17:54:00
12:36 PM,-9999,-9999,N/A,30.23,2.5,ENE,12.7,-,0.00,,Unknown,70,2013-12-13 18:36:00
12:42 PM,-9999,-9999,N/A,30.24,3.0,ENE,12.7,-,0.00,,Unknown,70,2013-12-13 18:42:00
12:54 PM,-9999,-9999,N/A,30.24,6.0,ENE,12.7,-,0.00,,Unknown,70,2013-12-13 18:54:00
1:18 PM,-9999,-9999,N/A,30.23,2.5,ENE,10.4,-,0.00,,Unknown,70,2013-12-13 19:18:00
1:32 PM,-9999,-9999,N/A,30.23,1.5,ENE,13.8,-,0.00,,Unknown,70,2013-12-13 19:32:00
1:54 PM,-6.0,-11.9,75,30.39,1.5,ENE,11.5,-,0.00,Snow,Light Snow,70,2013-12-13 19:54:00
2:08 PM,-6.0,-13.0,72,30.24,3.0,ENE,12.7,-,0.00,Snow,Light Snow,60,2013-12-13 20:08:00
2:23 PM,-6.0,-13.0,72,30.24,8.0,ENE,11.5,-,0.00,,Overcast,70,2013-12-13 20:23:00
2:54 PM,-6.0,-13.0,72,30.40,3.0,ENE,10.4,-,0.00,Snow,Light Snow,70,2013-12-13 20:54:00
3:06 PM,-6.0,-13.0,72,30.23,1.8,East,10.4,-,0.00,Snow,Light Snow,80,2013-12-13 21:06:00
3:29 PM,-6.0,-13.0,72,30.24,2.0,ENE,10.4,-,0.00,Snow,Light Snow,70,2013-12-13 21:29:00
3:54 PM,-6.0,-13.0,72,30.40,2.0,East,10.4,-,0.00,Snow,Light Snow,90,2013-12-13 21:54:00
4:01 PM,-6.0,-13.0,72,30.24,1.2,East,11.5,-,0.00,Snow,Light Snow,80,2013-12-13 22:01:00
4:31 PM,-7.1,-13.0,75,30.24,2.5,East,10.4,-,0.00,,Haze,80,2013-12-13 22:31:00
4:38 PM,-7.1,-13.0,75,30.25,4.0,East,10.4,-,0.00,,Haze,80,2013-12-13 22:38:00
4:54 PM,-7.1,-13.0,75,30.42,8.0,ENE,9.2,-,0.00,,Overcast,70,2013-12-13 22:54:00
5:01 PM,-7.1,-13.0,75,30.26,7.0,ENE,8.1,-,N/A,,Overcast,70,2013-12-13 23:01:00
5:26 PM,-7.1,-14.1,72,30.27,4.0,East,10.4,-,0.00,Snow,Light Snow,80,2013-12-13 23:26:00
5:34 PM,-7.1,-14.1,72,30.27,1.8,East,10.4,-,0.00,Snow,Light Snow,80,2013-12-13 23:34:00
5:45 PM,-7.1,-14.1,72,30.27,3.0,ENE,10.4,-,0.00,Snow,Light Snow,70,2013-12-13 23:45:00
5:54 PM,-7.1,-14.1,72,30.43,4.0,ENE,10.4,-,0.00,Snow,Light Snow,70,2013-12-13 23:54:00
6:12 PM,-7.1,-14.1,72,30.27,3.0,ENE,8.1,-,0.00,Snow,Light Snow,70,2013-12-14 00:12:00
6:21 PM,-8.0,-14.1,75,30.27,2.0,ENE,8.1,-,0.00,Snow,Light Snow,60,2013-12-14 00:21:00
6:28 PM,-8.0,-14.1,75,30.28,1.8,ENE,9.2,-,0.00,Snow,Light Snow,70,2013-12-14 00:28:00
6:35 PM,-8.0,-14.1,75,30.27,2.5,ENE,8.1,-,0.00,Snow,Light Snow,70,2013-12-14 00:35:00
6:43 PM,-8.0,-14.1,75,30.27,3.0,ENE,8.1,-,0.00,Snow,Light Snow,70,2013-12-14 00:43:00
6:54 PM,-8.0,-13.0,79,30.44,2.5,East,8.1,-,0.00,Snow,Light Snow,80,2013-12-14 00:54:00
7:25 PM,-8.0,-14.1,75,30.26,3.0,East,8.1,-,0.00,Snow,Light Snow,100,2013-12-14 01:25:00
7:54 PM,-9.0,-15.0,75,30.44,5.0,East,5.8,-,0.00,,Haze,100,2013-12-14 01:54:00
8:08 PM,-8.0,-14.1,75,30.28,7.0,East,3.5,-,N/A,,Overcast,90,2013-12-14 02:08:00
8:54 PM,-7.1,-13.0,75,30.42,8.0,ESE,12.7,-,0.00,Snow,Light Snow,110,2013-12-14 02:54:00
9:54 PM,-7.1,-13.0,75,30.42,10.0,SE,8.1,-,0.00,,Overcast,130,2013-12-14 03:54:00
10:54 PM,-6.0,-11.9,75,30.41,10.0,SE,4.6,-,N/A,,Overcast,130,2013-12-14 04:54:00
11:54 PM,-6.0,-11.9,75,30.41,9.0,ESE,4.6,-,0.00,Snow,Light Snow,120,2013-12-14 05:54:00